• In Hungary
  • List of Countries
  • For 7 days
  • Water Temperature
  • Satellite Maps
  • Weather Map
  • News
  • Weather Widgets
  • user-avatar
    Login

    Hourly Weather Thimphu

    Today, 27 May, Sunday

    Time Temperature Precipitation Wind Pressure Humidity
    00:00 +10°C° 0 mm 1 mps 525 mmHg 93%
    01:00 +10°C° 0 mm 1 mps 525 mmHg 92%
    02:00 +10°C° 0 mm 1 mps 525 mmHg 92%
    03:00 +10°C° 0 mm 1 mps 524 mmHg 92%
    04:00 +10°C° 0 mm 1 mps 525 mmHg 90%
    05:00 +10°C° 0 mm 1 mps 525 mmHg 89%
    06:00 +10°C° 0 mm 1 mps 525 mmHg 88%
    07:00 +12°C° 0 mm 1 mps 526 mmHg 80%
    08:00 +14°C° 0 mm 1 mps 527 mmHg 72%
    09:00 +15°C° 0 mm 2 mps 528 mmHg 65%
    10:00 +16°C° 0.1 mm 2 mps 528 mmHg 64%
    11:00 +16°C° 0.1 mm 2 mps 528 mmHg 63%
    12:00 +16°C° 0.1 mm 3 mps 528 mmHg 62%
    13:00 +16°C° 0.1 mm 3 mps 527 mmHg 64%
    14:00 +16°C° 0.1 mm 3 mps 527 mmHg 65%
    15:00 +16°C° 0.1 mm 3 mps 526 mmHg 66%
    16:00 +15°C° 0.1 mm 2 mps 525 mmHg 71%
    17:00 +14°C° 0.1 mm 2 mps 525 mmHg 77%
    18:00 +13°C° 0.1 mm 2 mps 524 mmHg 82%
    19:00 +12°C° 0.1 mm 2 mps 524 mmHg 86%
    20:00 +12°C° 0.1 mm 2 mps 524 mmHg 90%
    21:00 +11°C° 0.1 mm 1 mps 524 mmHg 93%
    22:00 +11°C° 0.1 mm 1 mps 524 mmHg 92%
    23:00 +10°C° 0.1 mm 1 mps 524 mmHg 91%

    Tomorrow, 28 May, Monday

    Time Temperature Precipitation Wind Pressure Humidity
    00:00 +10°C° 0.1 mm 1 mps 524 mmHg 90%
    01:00 +10°C° 0.1 mm 1 mps 524 mmHg 90%
    02:00 +9°C° 0.1 mm 1 mps 523 mmHg 90%
    03:00 +9°C° 0.1 mm 1 mps 523 mmHg 90%
    04:00 +9°C° 0.1 mm 1 mps 523 mmHg 89%
    05:00 +9°C° 0.1 mm 1 mps 523 mmHg 88%
    06:00 +9°C° 0.1 mm 1 mps 523 mmHg 87%
    07:00 +11°C° 0.1 mm 1 mps 525 mmHg 78%
    08:00 +13°C° 0.1 mm 1 mps 526 mmHg 70%
    09:00 +15°C° 0.1 mm 2 mps 527 mmHg 61%
    10:00 +16°C° 0.2 mm 2 mps 527 mmHg 59%
    11:00 +17°C° 0.2 mm 2 mps 527 mmHg 57%
    12:00 +17°C° 0.2 mm 3 mps 527 mmHg 55%
    13:00 +17°C° 0.3 mm 3 mps 526 mmHg 57%
    14:00 +16°C° 0.3 mm 3 mps 526 mmHg 59%
    15:00 +16°C° 0.3 mm 3 mps 525 mmHg 61%
    16:00 +15°C° 0.3 mm 2 mps 524 mmHg 66%
    17:00 +14°C° 0.3 mm 2 mps 523 mmHg 71%
    18:00 +13°C° 0.3 mm 2 mps 523 mmHg 76%
    19:00 +12°C° 0.1 mm 2 mps 523 mmHg 81%
    20:00 +11°C° 0.1 mm 1 mps 523 mmHg 86%
    21:00 +10°C° 0.1 mm 1 mps 523 mmHg 90%
    22:00 +9°C° 0.1 mm 1 mps 523 mmHg 90%
    23:00 +9°C° 0.1 mm 1 mps 523 mmHg 90%

    Day after tomorrow, 29 May, Tuesday

    Time Temperature Precipitation Wind Pressure Humidity
    00:00 +9°C° 0.1 mm 1 mps 523 mmHg 90%
    01:00 +9°C° 0.1 mm 1 mps 523 mmHg 89%
    02:00 +9°C° 0.1 mm 1 mps 522 mmHg 87%
    03:00 +9°C° 0.1 mm 1 mps 522 mmHg 86%
    04:00 +9°C° 0.1 mm 1 mps 522 mmHg 85%
    05:00 +9°C° 0.1 mm 1 mps 522 mmHg 84%
    06:00 +9°C° 0.1 mm 1 mps 523 mmHg 82%
    07:00 +11°C° 0.1 mm 1 mps 524 mmHg 75%
    08:00 +13°C° 0.1 mm 1 mps 525 mmHg 67%
    09:00 +15°C° 0.1 mm 2 mps 526 mmHg 60%
    10:00 +15°C° 0.2 mm 2 mps 526 mmHg 59%
    11:00 +16°C° 0.2 mm 2 mps 526 mmHg 59%
    12:00 +16°C° 0.2 mm 3 mps 526 mmHg 58%
    13:00 +16°C° 0.4 mm 3 mps 525 mmHg 62%
    14:00 +14°C° 0.4 mm 3 mps 524 mmHg 66%
    15:00 +15°C° 0.4 mm 2 mps 524 mmHg 69%
    16:00 +14°C° 0.3 mm 2 mps 523 mmHg 74%
    17:00 +13°C° 0.3 mm 2 mps 523 mmHg 78%
    18:00 +12°C° 0.3 mm 1 mps 522 mmHg 82%
    19:00 +11°C° 0.1 mm 1 mps 522 mmHg 85%
    20:00 +11°C° 0.1 mm 1 mps 523 mmHg 87%
    21:00 +10°C° 0.1 mm 1 mps 523 mmHg 90%
    22:00 +10°C° 0.1 mm 1 mps 523 mmHg 89%
    23:00 +10°C° 0.1 mm 1 mps 523 mmHg 89%

    30 May, Wednesday

    Time Temperature Precipitation Wind Pressure Humidity
    00:00 +10°C° 0.1 mm 1 mps 523 mmHg 88%
    01:00 +9°C° 0.1 mm 1 mps 523 mmHg 88%
    02:00 +9°C° 0.1 mm 1 mps 523 mmHg 88%
    03:00 +9°C° 0.1 mm 1 mps 523 mmHg 88%
    04:00 +9°C° 0.1 mm 1 mps 523 mmHg 87%
    05:00 +9°C° 0.1 mm 1 mps 523 mmHg 86%
    06:00 +9°C° 0.1 mm 1 mps 523 mmHg 85%
    07:00 +11°C° 0.1 mm 1 mps 525 mmHg 77%
    08:00 +13°C° 0.1 mm 1 mps 526 mmHg 70%
    09:00 +15°C° 0.1 mm 2 mps 527 mmHg 62%
    10:00 +15°C° 0.4 mm 2 mps 527 mmHg 62%
    11:00 +16°C° 0.4 mm 2 mps 527 mmHg 63%
    12:00 +16°C° 0.4 mm 2 mps 526 mmHg 63%
    13:00 +16°C° 0.3 mm 2 mps 526 mmHg 66%
    14:00 +15°C° 0.3 mm 2 mps 525 mmHg 68%
    15:00 +15°C° 0.3 mm 2 mps 525 mmHg 71%
    16:00 +14°C° 0.3 mm 2 mps 524 mmHg 75%
    17:00 +13°C° 0.3 mm 2 mps 524 mmHg 80%
    18:00 +13°C° 0.3 mm 1 mps 524 mmHg 84%
    19:00 +12°C° 0.1 mm 1 mps 524 mmHg 86%
    20:00 +11°C° 0.1 mm 1 mps 524 mmHg 89%
    21:00 +10°C° 0.1 mm 1 mps 524 mmHg 91%
    22:00 +10°C° 0.1 mm 1 mps 524 mmHg 90%
    23:00 +10°C° 0.1 mm 1 mps 524 mmHg 90%

    31 May, Thursday

    Time Temperature Precipitation Wind Pressure Humidity
    00:00 +10°C° 0.1 mm 1 mps 524 mmHg 89%
    01:00 +10°C° 0.1 mm 1 mps 524 mmHg 88%
    02:00 +9°C° 0.1 mm 1 mps 524 mmHg 87%
    03:00 +9°C° 0.1 mm 1 mps 524 mmHg 86%
    04:00 +10°C° 0 mm 1 mps 524 mmHg 84%
    05:00 +10°C° 0 mm 1 mps 524 mmHg 83%
    06:00 +10°C° 0 mm 1 mps 524 mmHg 81%
    07:00 +12°C° 0 mm 1 mps 526 mmHg 72%
    08:00 +15°C° 0 mm 1 mps 527 mmHg 64%
    09:00 +18°C° 0 mm 1 mps 529 mmHg 56%
    10:00 +17°C° 0.1 mm 2 mps 529 mmHg 56%
    11:00 +18°C° 0.1 mm 2 mps 528 mmHg 56%
    12:00 +18°C° 0.1 mm 3 mps 528 mmHg 56%
    13:00 +18°C° 0.1 mm 3 mps 528 mmHg 58%
    14:00 +18°C° 0.1 mm 3 mps 527 mmHg 61%
    15:00 +17°C° 0.1 mm 3 mps 526 mmHg 63%
    16:00 +16°C° 0.1 mm 2 mps 526 mmHg 69%
    17:00 +15°C° 0.1 mm 2 mps 525 mmHg 75%
    18:00 +14°C° 0.1 mm 2 mps 525 mmHg 81%
    19:00 +13°C° 0.1 mm 2 mps 525 mmHg 84%
    20:00 +12°C° 0.1 mm 1 mps 525 mmHg 88%
    21:00 +12°C° 0.1 mm 1 mps 525 mmHg 91%
    22:00 +11°C° 0.1 mm 1 mps 525 mmHg 90%
    23:00 +11°C° 0.1 mm 1 mps 525 mmHg 90%

    1 June, Friday

    Time Temperature Precipitation Wind Pressure Humidity
    00:00 +11°C° 0.1 mm 1 mps 525 mmHg 89%
    01:00 +11°C° 0.1 mm 1 mps 525 mmHg 89%
    02:00 +11°C° 0.1 mm 1 mps 524 mmHg 88%
    03:00 +10°C° 0.1 mm 1 mps 524 mmHg 88%
    04:00 +10°C° 0 mm 1 mps 524 mmHg 86%
    05:00 +11°C° 0 mm 1 mps 525 mmHg 84%
    06:00 +11°C° 0 mm 1 mps 525 mmHg 82%
    07:00 +13°C° 0 mm 1 mps 526 mmHg 75%
    08:00 +15°C° 0 mm 2 mps 528 mmHg 69%
    09:00 +17°C° 0 mm 2 mps 529 mmHg 62%
    10:00 +17°C° 0 mm 2 mps 529 mmHg 61%
    11:00 +18°C° 0 mm 2 mps 529 mmHg 60%
    12:00 +18°C° 0 mm 3 mps 529 mmHg 60%
    13:00 +18°C° 0.1 mm 3 mps 529 mmHg 61%
    14:00 +18°C° 0.1 mm 3 mps 528 mmHg 62%
    15:00 +18°C° 0.1 mm 3 mps 528 mmHg 63%
    16:00 +17°C° 0.2 mm 2 mps 527 mmHg 68%
    17:00 +15°C° 0.2 mm 2 mps 526 mmHg 74%
    18:00 +14°C° 0.2 mm 2 mps 526 mmHg 80%
    19:00 +13°C° 0.2 mm 1 mps 526 mmHg 84%
    20:00 +12°C° 0.2 mm 1 mps 526 mmHg 89%
    21:00 +11°C° 0.2 mm 1 mps 525 mmHg 94%
    22:00 +11°C° 0 mm 1 mps 525 mmHg 93%
    23:00 +11°C° 0 mm 1 mps 525 mmHg 91%
    Show more